﻿_id,Serial No,Timestamp,Temperature,Humidity
1,1398882710,2014-05-01T00:01:50,29.2,55
2,1398883018,2014-05-01T00:06:58,29.2,55
3,1398883326,2014-05-01T00:12:06,29.1,56
4,1398883634,2014-05-01T00:17:14,29.1,56
5,1398883942,2014-05-01T00:22:22,29,57
6,1398884249,2014-05-01T00:27:29,29,57
7,1398884556,2014-05-01T00:32:36,28.9,58
8,1398884865,2014-05-01T00:37:45,28.9,58
9,1398885172,2014-05-01T00:42:52,28.8,59
10,1398885479,2014-05-01T00:47:59,28.7,59
11,1398885787,2014-05-01T00:53:07,28.7,60
12,1398886095,2014-05-01T00:58:15,28.6,60
13,1398886403,2014-05-01T01:03:23,28.6,60
14,1398886658,2014-05-01T01:07:38,28.6,60
15,1398886966,2014-05-01T01:12:46,28.5,60
16,1398887273,2014-05-01T01:17:53,28.5,61
17,1398887581,2014-05-01T01:23:01,28.4,61
18,1398887889,2014-05-01T01:28:09,28.4,61
19,1398888196,2014-05-01T01:33:16,28.3,62
20,1398888504,2014-05-01T01:38:24,28.3,62
21,1398888812,2014-05-01T01:43:32,28.2,62
22,1398889119,2014-05-01T01:48:39,28.2,62
23,1398889427,2014-05-01T01:53:47,28.2,63
24,1398889734,2014-05-01T01:58:54,28.1,63
25,1398890042,2014-05-01T02:04:02,28.1,63
26,1398890297,2014-05-01T02:08:17,28,63
27,1398890605,2014-05-01T02:13:25,28,63
28,1398890914,2014-05-01T02:18:34,27.9,64
29,1398891221,2014-05-01T02:23:41,27.9,64
30,1398891529,2014-05-01T02:28:49,27.9,64
31,1398891836,2014-05-01T02:33:56,27.8,64
32,1398892143,2014-05-01T02:39:03,27.8,64
33,1398892451,2014-05-01T02:44:11,27.8,64
34,1398892759,2014-05-01T02:49:19,27.7,64
35,1398893067,2014-05-01T02:54:27,27.7,64
36,1398893375,2014-05-01T02:59:35,27.7,64
37,1398893682,2014-05-01T03:04:42,27.6,64
38,1398893990,2014-05-01T03:09:50,27.6,64
39,1398894246,2014-05-01T03:14:06,27.6,64
40,1398894553,2014-05-01T03:19:13,27.6,64
41,1398894860,2014-05-01T03:24:20,27.5,64
42,1398895168,2014-05-01T03:29:28,27.5,64
43,1398895476,2014-05-01T03:34:36,27.5,64
44,1398895783,2014-05-01T03:39:43,27.4,64
45,1398896091,2014-05-01T03:44:51,27.4,64
46,1398896399,2014-05-01T03:49:59,27.4,64
47,1398896707,2014-05-01T03:55:07,27.4,64
48,1398897014,2014-05-01T04:00:14,27.4,63
49,1398897321,2014-05-01T04:05:21,27.3,63
50,1398897629,2014-05-01T04:10:29,27.3,63
51,1398897937,2014-05-01T04:15:37,27.3,63
52,1398898244,2014-05-01T04:20:44,27.3,63
53,1398898500,2014-05-01T04:25:00,27.3,64
54,1398898808,2014-05-01T04:30:08,27.2,64
55,1398899116,2014-05-01T04:35:16,27.2,64
56,1398899423,2014-05-01T04:40:23,27.1,64
57,1398899731,2014-05-01T04:45:31,27.1,65
58,1398900039,2014-05-01T04:50:39,27.1,65
59,1398900346,2014-05-01T04:55:46,27.1,65
60,1398900654,2014-05-01T05:00:54,27,65
61,1398900961,2014-05-01T05:06:01,27,65
62,1398901269,2014-05-01T05:11:09,27,64
63,1398901577,2014-05-01T05:16:17,27,64
64,1398901884,2014-05-01T05:21:24,26.9,64
65,1398902192,2014-05-01T05:26:32,26.9,64
66,1398902448,2014-05-01T05:30:48,26.9,65
67,1398902756,2014-05-01T05:35:56,26.8,65
68,1398903063,2014-05-01T05:41:03,26.8,65
69,1398903371,2014-05-01T05:46:11,26.7,65
70,1398903679,2014-05-01T05:51:19,26.7,64
71,1398903986,2014-05-01T05:56:26,26.6,64
72,1398904294,2014-05-01T06:01:34,26.6,64
73,1398904602,2014-05-01T06:06:42,26.6,64
74,1398904909,2014-05-01T06:11:49,26.6,64
75,1398905217,2014-05-01T06:16:57,26.6,64
76,1398905524,2014-05-01T06:22:04,26.5,65
77,1398905832,2014-05-01T06:27:12,26.5,65
78,1398906139,2014-05-01T06:32:19,26.5,65
79,1398906395,2014-05-01T06:36:35,26.5,65
80,1398906703,2014-05-01T06:41:43,26.5,65
81,1398907010,2014-05-01T06:46:50,26.4,65
82,1398907319,2014-05-01T06:51:59,26.4,65
83,1398907626,2014-05-01T06:57:06,26.4,65
84,1398907933,2014-05-01T07:02:13,26.4,65
85,1398908241,2014-05-01T07:07:21,26.4,65
86,1398908548,2014-05-01T07:12:28,26.4,66
87,1398908856,2014-05-01T07:17:36,26.4,66
88,1398909164,2014-05-01T07:22:44,26.4,66
89,1398909471,2014-05-01T07:27:51,26.5,65
90,1398909779,2014-05-01T07:32:59,26.5,65
91,1398910086,2014-05-01T07:38:06,26.5,65
92,1398910343,2014-05-01T07:42:23,26.6,65
93,1398910650,2014-05-01T07:47:30,26.6,65
94,1398910958,2014-05-01T07:52:38,26.6,65
95,1398911266,2014-05-01T07:57:46,26.7,65
96,1398911573,2014-05-01T08:02:53,26.7,65
97,1398911881,2014-05-01T08:08:01,26.8,65
98,1398912188,2014-05-01T08:13:08,26.8,65
99,1398912496,2014-05-01T08:18:16,26.9,65
100,1398912804,2014-05-01T08:23:24,27,65
101,1398913111,2014-05-01T08:28:31,27,64
102,1398913418,2014-05-01T08:33:38,27.1,64
103,1398913726,2014-05-01T08:38:46,27.2,63
104,1398914034,2014-05-01T08:43:54,27.3,63
105,1398914290,2014-05-01T08:48:10,27.3,63
106,1398914598,2014-05-01T08:53:18,27.4,63
107,1398914906,2014-05-01T08:58:26,27.4,62
108,1398915212,2014-05-01T09:03:32,27.5,62
109,1398915520,2014-05-01T09:08:40,27.6,62
110,1398915829,2014-05-01T09:13:49,27.6,62
111,1398916136,2014-05-01T09:18:56,27.7,62
112,1398916444,2014-05-01T09:24:04,27.8,62
113,1398916751,2014-05-01T09:29:11,27.8,61
114,1398917058,2014-05-01T09:34:18,27.9,61
115,1398917366,2014-05-01T09:39:26,28,61
116,1398917673,2014-05-01T09:44:33,28.1,61
117,1398917930,2014-05-01T09:48:50,28.1,61
118,1398918238,2014-05-01T09:53:58,28.2,60
119,1398918546,2014-05-01T09:59:06,28.3,60
120,1398918853,2014-05-01T10:04:13,28.3,60
121,1398919161,2014-05-01T10:09:21,28.4,60
122,1398919469,2014-05-01T10:14:29,28.5,59
123,1398919776,2014-05-01T10:19:36,28.5,59
124,1398920083,2014-05-01T10:24:43,28.6,59
125,1398920391,2014-05-01T10:29:51,28.7,59
126,1398920698,2014-05-01T10:34:58,28.8,58
127,1398921006,2014-05-01T10:40:06,28.8,58
128,1398921313,2014-05-01T10:45:13,28.9,58
129,1398921570,2014-05-01T10:49:30,29,58
130,1398921877,2014-05-01T10:54:37,29,57
131,1398922185,2014-05-01T10:59:45,29.1,57
132,1398922493,2014-05-01T11:04:53,29.2,55
133,1398922800,2014-05-01T11:10:00,29.3,55
134,1398923108,2014-05-01T11:15:08,29.4,55
135,1398923415,2014-05-01T11:20:15,29.4,55
136,1398923723,2014-05-01T11:25:23,29.5,55
137,1398924031,2014-05-01T11:30:31,29.5,54
138,1398924338,2014-05-01T11:35:38,29.5,53
139,1398924646,2014-05-01T11:40:46,29.5,52
140,1398924954,2014-05-01T11:45:54,29.6,53
141,1398925261,2014-05-01T11:51:01,29.7,52
142,1398925518,2014-05-01T11:55:18,29.7,52
143,1398925825,2014-05-01T12:00:25,29.8,53
144,1398926132,2014-05-01T12:05:32,29.8,52
145,1398926439,2014-05-01T12:10:39,29.9,52
146,1398926748,2014-05-01T12:15:48,30,52
147,1398927056,2014-05-01T12:20:56,30,50
148,1398927363,2014-05-01T12:26:03,30,53
149,1398927671,2014-05-01T12:31:11,30,52
150,1398927977,2014-05-01T12:36:17,30.1,51
151,1398928285,2014-05-01T12:41:25,30.2,50
152,1398928593,2014-05-01T12:46:33,30.3,48
153,1398928900,2014-05-01T12:51:40,30.3,50
154,1398929208,2014-05-01T12:56:48,30.3,48
155,1398929464,2014-05-01T13:01:04,30.3,49
156,1398929772,2014-05-01T13:06:12,30.4,50
157,1398930080,2014-05-01T13:11:20,30.4,50
158,1398930387,2014-05-01T13:16:27,30.4,50
159,1398930695,2014-05-01T13:21:35,30.5,49
160,1398931002,2014-05-01T13:26:42,30.5,49
161,1398931310,2014-05-01T13:31:50,30.5,49
162,1398931618,2014-05-01T13:36:58,30.5,49
163,1398931925,2014-05-01T13:42:05,30.6,48
164,1398932233,2014-05-01T13:47:13,30.6,47
165,1398932540,2014-05-01T13:52:20,30.7,46
166,1398932848,2014-05-01T13:57:28,30.8,46
167,1398933104,2014-05-01T14:01:44,30.9,46
168,1398933412,2014-05-01T14:06:52,30.9,45
169,1398933720,2014-05-01T14:12:00,31,45
170,1398934027,2014-05-01T14:17:07,31.1,45
171,1398934335,2014-05-01T14:22:15,31.1,44
172,1398934641,2014-05-01T14:27:21,31.1,44
173,1398934949,2014-05-01T14:32:29,31.1,44
174,1398935257,2014-05-01T14:37:37,31.1,45
175,1398935564,2014-05-01T14:42:44,31.2,41
176,1398935873,2014-05-01T14:47:53,31.3,40
177,1398936181,2014-05-01T14:53:01,31.3,42
178,1398936488,2014-05-01T14:58:08,31.3,41
179,1398936745,2014-05-01T15:02:25,31.4,41
180,1398937051,2014-05-01T15:07:31,31.5,39
181,1398937359,2014-05-01T15:12:39,31.5,39
182,1398937666,2014-05-01T15:17:46,31.6,39
183,1398937974,2014-05-01T15:22:54,31.5,40
184,1398938282,2014-05-01T15:28:02,31.5,39
185,1398938589,2014-05-01T15:33:09,31.4,38
186,1398938897,2014-05-01T15:38:17,31.4,38
187,1398939204,2014-05-01T15:43:24,31.3,37
188,1398939512,2014-05-01T15:48:32,31.3,37
189,1398939820,2014-05-01T15:53:40,31.2,41
190,1398940128,2014-05-01T15:58:48,31.1,42
191,1398940436,2014-05-01T16:03:56,31.1,43
192,1398940692,2014-05-01T16:08:12,31.1,43
193,1398941000,2014-05-01T16:13:20,31,43
194,1398941307,2014-05-01T16:18:27,31,43
195,1398941614,2014-05-01T16:23:34,30.9,44
196,1398941922,2014-05-01T16:28:42,30.9,44
197,1398942229,2014-05-01T16:33:49,30.8,43
198,1398942537,2014-05-01T16:38:57,30.8,44
199,1398942845,2014-05-01T16:44:05,30.8,44
200,1398943152,2014-05-01T16:49:12,30.8,44
201,1398943460,2014-05-01T16:54:20,30.8,44
202,1398943767,2014-05-01T16:59:27,30.7,44
203,1398944075,2014-05-01T17:04:35,30.7,44
204,1398944383,2014-05-01T17:09:43,30.7,45
205,1398944639,2014-05-01T17:13:59,30.7,46
206,1398944947,2014-05-01T17:19:07,30.7,46
207,1398945254,2014-05-01T17:24:14,30.6,47
208,1398945562,2014-05-01T17:29:22,30.6,47
209,1398945870,2014-05-01T17:34:30,30.6,47
210,1398946177,2014-05-01T17:39:37,30.5,47
211,1398946485,2014-05-01T17:44:45,30.5,47
212,1398946792,2014-05-01T17:49:52,30.5,48
213,1398947100,2014-05-01T17:55:00,30.4,47
214,1398947408,2014-05-01T18:00:08,30.4,47
215,1398947715,2014-05-01T18:05:15,30.4,47
216,1398948022,2014-05-01T18:10:22,30.3,48
217,1398948329,2014-05-01T18:15:29,30.3,46
218,1398948638,2014-05-01T18:20:38,30.3,46
219,1398948894,2014-05-01T18:24:54,30.3,45
220,1398949202,2014-05-01T18:30:02,30.2,45
221,1398949510,2014-05-01T18:35:10,30.2,46
222,1398949817,2014-05-01T18:40:17,30.1,45
223,1398950125,2014-05-01T18:45:25,30.1,45
224,1398950433,2014-05-01T18:50:33,30.1,44
225,1398950740,2014-05-01T18:55:40,30.1,44
226,1398951047,2014-05-01T19:00:47,30.1,45
227,1398951354,2014-05-01T19:05:54,30.1,44
228,1398951663,2014-05-01T19:11:03,30,45
229,1398951971,2014-05-01T19:16:11,30,45
230,1398952277,2014-05-01T19:21:17,30,45
231,1398952534,2014-05-01T19:25:34,30,44
232,1398952841,2014-05-01T19:30:41,29.9,44
233,1398953149,2014-05-01T19:35:49,29.9,45
234,1398953456,2014-05-01T19:40:56,29.8,45
235,1398953764,2014-05-01T19:46:04,29.8,45
236,1398954072,2014-05-01T19:51:12,29.8,45
237,1398954379,2014-05-01T19:56:19,29.7,46
238,1398954687,2014-05-01T20:01:27,29.7,46
239,1398954994,2014-05-01T20:06:34,29.6,46
240,1398955302,2014-05-01T20:11:42,29.6,46
241,1398955610,2014-05-01T20:16:50,29.5,46
242,1398955916,2014-05-01T20:21:56,29.5,46
243,1398956173,2014-05-01T20:26:13,29.5,46
244,1398956481,2014-05-01T20:31:21,29.5,46
245,1398956789,2014-05-01T20:36:29,29.4,46
246,1398957096,2014-05-01T20:41:36,29.4,47
247,1398957403,2014-05-01T20:46:43,29.4,47
248,1398957712,2014-05-01T20:51:52,29.3,47
249,1398958019,2014-05-01T20:56:59,29.3,47
250,1398958327,2014-05-01T21:02:07,29.2,48
251,1398958635,2014-05-01T21:07:15,29.2,48
252,1398958941,2014-05-01T21:12:21,29.2,48
253,1398959249,2014-05-01T21:17:29,29.2,48
254,1398959557,2014-05-01T21:22:37,29.2,49
255,1398959814,2014-05-01T21:26:54,29.3,49
256,1398960121,2014-05-01T21:32:01,29.3,49
257,1398960460,2014-05-01T21:37:40,29.3,49
258,1398960563,2014-05-01T21:39:23,29.3,49
259,1398960870,2014-05-01T21:44:30,29.2,49
260,1398961177,2014-05-01T21:49:37,29.2,49
261,1398961485,2014-05-01T21:54:45,29.2,49
262,1398961793,2014-05-01T21:59:53,29.1,49
263,1398962100,2014-05-01T22:05:00,29.1,49
264,1398962408,2014-05-01T22:10:08,29,49
265,1398962664,2014-05-01T22:14:24,29,49
266,1398962972,2014-05-01T22:19:32,29,50
267,1398963279,2014-05-01T22:24:39,28.9,50
268,1398963587,2014-05-01T22:29:47,28.9,50
269,1398963895,2014-05-01T22:34:55,28.8,50
270,1398964202,2014-05-01T22:40:02,28.8,50
271,1398964510,2014-05-01T22:45:10,28.8,50
272,1398964817,2014-05-01T22:50:17,28.7,50
273,1398965125,2014-05-01T22:55:25,28.6,50
274,1398965433,2014-05-01T23:00:33,28.6,50
275,1398965740,2014-05-01T23:05:40,28.5,50
276,1398966047,2014-05-01T23:10:47,28.5,50
277,1398966304,2014-05-01T23:15:04,28.5,51
278,1398966612,2014-05-01T23:20:12,28.5,51
279,1398966919,2014-05-01T23:25:19,28.4,51
280,1398967227,2014-05-01T23:30:27,28.4,51
281,1398967534,2014-05-01T23:35:34,28.3,51
282,1398967841,2014-05-01T23:40:41,28.3,51
283,1398968150,2014-05-01T23:45:50,28.2,51
284,1398968458,2014-05-01T23:50:58,28.2,51
285,1398968765,2014-05-01T23:56:05,28.2,52
286,1398969073,2014-05-02T00:01:13,28.1,52
287,1398969380,2014-05-02T00:06:20,28.1,52
288,1398969637,2014-05-02T00:10:37,28.1,52
289,1398969943,2014-05-02T00:15:43,28.1,52
290,1398970251,2014-05-02T00:20:51,28.1,52
291,1398970559,2014-05-02T00:25:59,28,52
292,1398970866,2014-05-02T00:31:06,28,51
293,1398971175,2014-05-02T00:36:15,28,51
294,1398971482,2014-05-02T00:41:22,27.9,51
295,1398971790,2014-05-02T00:46:30,27.9,52
296,1398972098,2014-05-02T00:51:38,27.8,51
297,1398972405,2014-05-02T00:56:45,27.8,51
298,1398972713,2014-05-02T01:01:53,27.8,51
299,1398973020,2014-05-02T01:07:00,27.7,51
300,1398973327,2014-05-02T01:12:07,27.7,52
301,1398973584,2014-05-02T01:16:24,27.6,52
302,1398973891,2014-05-02T01:21:31,27.6,52
303,1398974199,2014-05-02T01:26:39,27.6,52
304,1398974506,2014-05-02T01:31:46,27.6,51
305,1398974814,2014-05-02T01:36:54,27.5,52
306,1398975122,2014-05-02T01:42:02,27.5,52
307,1398975429,2014-05-02T01:47:09,27.5,52
308,1398975737,2014-05-02T01:52:17,27.4,52
309,1398976044,2014-05-02T01:57:24,27.4,52
310,1398976352,2014-05-02T02:02:32,27.4,52
311,1398976660,2014-05-02T02:07:40,27.4,52
312,1398976967,2014-05-02T02:12:47,27.3,53
313,1398978776,2014-05-02T02:42:56,27,54
314,1398979032,2014-05-02T02:47:12,26.9,54
315,1398979339,2014-05-02T02:52:19,26.9,55
316,1398979648,2014-05-02T02:57:28,26.8,55
317,1398979955,2014-05-02T03:02:35,26.8,55
318,1398980262,2014-05-02T03:07:42,26.7,55
319,1398980571,2014-05-02T03:12:51,26.6,55
320,1398980878,2014-05-02T03:17:58,26.6,55
321,1398981185,2014-05-02T03:23:05,26.5,55
322,1398981493,2014-05-02T03:28:13,26.5,55
323,1398981800,2014-05-02T03:33:20,26.4,55
324,1398982108,2014-05-02T03:38:28,26.4,55
325,1398982416,2014-05-02T03:43:36,26.4,56
326,1398982672,2014-05-02T03:47:52,26.4,56
327,1398982980,2014-05-02T03:53:00,26.4,56
328,1398983287,2014-05-02T03:58:07,26.4,56
329,1398983595,2014-05-02T04:03:15,26.4,56
330,1398983902,2014-05-02T04:08:22,26.4,56
331,1398984209,2014-05-02T04:13:29,26.3,56
332,1398984518,2014-05-02T04:18:38,26.3,56
333,1398984825,2014-05-02T04:23:45,26.3,56
334,1398985133,2014-05-02T04:28:53,26.3,56
335,1398985441,2014-05-02T04:34:01,26.3,57
336,1398985748,2014-05-02T04:39:08,26.3,56
337,1398986004,2014-05-02T04:43:24,26.3,56
338,1398986312,2014-05-02T04:48:32,26.3,56
339,1398986620,2014-05-02T04:53:40,26.3,56
340,1398986927,2014-05-02T04:58:47,26.3,56
341,1398987235,2014-05-02T05:03:55,26.3,56
342,1398987543,2014-05-02T05:09:03,26.3,57
343,1398987850,2014-05-02T05:14:10,26.3,57
344,1398988158,2014-05-02T05:19:18,26.2,57
345,1398988465,2014-05-02T05:24:25,26.2,57
346,1398988772,2014-05-02T05:29:32,26.2,57
347,1398989080,2014-05-02T05:34:40,26.2,57
348,1398989388,2014-05-02T05:39:48,26.2,57
349,1398989696,2014-05-02T05:44:56,26.2,57
350,1398989951,2014-05-02T05:49:11,26.2,57
351,1398990259,2014-05-02T05:54:19,26.2,57
352,1398990566,2014-05-02T05:59:26,26.2,57
353,1398990874,2014-05-02T06:04:34,26.2,57
354,1398991182,2014-05-02T06:09:42,26.3,57
355,1398991489,2014-05-02T06:14:49,26.2,57
356,1398991797,2014-05-02T06:19:57,26.2,57
357,1398992105,2014-05-02T06:25:05,26.2,58
358,1398992412,2014-05-02T06:30:12,26.2,58
359,1398992720,2014-05-02T06:35:20,26.2,58
360,1398993027,2014-05-02T06:40:27,26.2,58
361,1398993335,2014-05-02T06:45:35,26.2,58
362,1398993643,2014-05-02T06:50:43,26.2,58
363,1398993950,2014-05-02T06:55:50,26.2,57
364,1398994207,2014-05-02T07:00:07,26.2,58
365,1398994514,2014-05-02T07:05:14,26.2,58
366,1398994822,2014-05-02T07:10:22,26.3,58
367,1398995129,2014-05-02T07:15:29,26.3,58
368,1398995437,2014-05-02T07:20:37,26.3,58
369,1398995745,2014-05-02T07:25:45,26.3,59
370,1398996051,2014-05-02T07:30:51,26.4,59
371,1398996359,2014-05-02T07:35:59,26.4,58
372,1398996668,2014-05-02T07:41:08,26.4,58
373,1398996975,2014-05-02T07:46:15,26.4,58
374,1398997283,2014-05-02T07:51:23,26.5,58
375,1398997590,2014-05-02T07:56:30,26.5,58
376,1398997897,2014-05-02T08:01:37,26.5,58
377,1398998153,2014-05-02T08:05:53,26.5,58
378,1398998461,2014-05-02T08:11:01,26.5,59
379,1398998769,2014-05-02T08:16:09,26.6,59
380,1398999077,2014-05-02T08:21:17,26.6,59
381,1398999385,2014-05-02T08:26:25,26.7,58
382,1398999692,2014-05-02T08:31:32,26.7,58
383,1399000000,2014-05-02T08:36:40,26.8,58
384,1399000307,2014-05-02T08:41:47,26.9,57
385,1399000614,2014-05-02T08:46:54,27,58
386,1399000923,2014-05-02T08:52:03,27.1,57
387,1399001231,2014-05-02T08:57:11,27.2,57
388,1399001537,2014-05-02T09:02:17,27.3,57
389,1399001794,2014-05-02T09:06:34,27.4,57
390,1399002102,2014-05-02T09:11:42,27.5,57
391,1399002410,2014-05-02T09:16:50,27.6,57
392,1399002716,2014-05-02T09:21:56,27.6,57
393,1399003024,2014-05-02T09:27:04,27.7,57
394,1399003332,2014-05-02T09:32:12,27.8,58
395,1399003639,2014-05-02T09:37:19,27.9,58
396,1399003947,2014-05-02T09:42:27,27.9,58
397,1399004254,2014-05-02T09:47:34,28,57
398,1399004562,2014-05-02T09:52:42,28.1,57
399,1399004870,2014-05-02T09:57:50,28.1,57
400,1399005177,2014-05-02T10:02:57,28.2,56
401,1399005485,2014-05-02T10:08:05,28.2,57
402,1399005741,2014-05-02T10:12:21,28.3,57
403,1399006049,2014-05-02T10:17:29,28.3,57
404,1399006357,2014-05-02T10:22:37,28.4,57
405,1399006664,2014-05-02T10:27:44,28.5,57
406,1399006972,2014-05-02T10:32:52,28.5,56
407,1399007279,2014-05-02T10:37:59,28.6,56
408,1399007586,2014-05-02T10:43:06,28.6,56
409,1399007894,2014-05-02T10:48:14,28.7,56
410,1399008202,2014-05-02T10:53:22,28.8,56
411,1399008510,2014-05-02T10:58:30,28.9,55
412,1399008817,2014-05-02T11:03:37,28.9,55
413,1399009125,2014-05-02T11:08:45,29,55
414,1399009380,2014-05-02T11:13:00,29,56
415,1399009688,2014-05-02T11:18:08,29.1,56
416,1399009997,2014-05-02T11:23:17,29.2,56
417,1399010304,2014-05-02T11:28:24,29.2,55
418,1399010611,2014-05-02T11:33:31,29.3,55
419,1399010918,2014-05-02T11:38:38,29.4,53
420,1399011227,2014-05-02T11:43:47,29.4,52
421,1399011535,2014-05-02T11:48:55,29.4,54
422,1399011842,2014-05-02T11:54:02,29.5,53
423,1399012150,2014-05-02T11:59:10,29.6,53
424,1399012457,2014-05-02T12:04:17,29.6,51
425,1399012764,2014-05-02T12:09:24,29.7,51
426,1399013072,2014-05-02T12:14:32,29.7,51
427,1399013328,2014-05-02T12:18:48,29.8,51
428,1399013636,2014-05-02T12:23:56,29.8,49
429,1399013943,2014-05-02T12:29:03,29.8,49
430,1399014251,2014-05-02T12:34:11,29.8,51
431,1399014559,2014-05-02T12:39:19,29.8,49
432,1399014866,2014-05-02T12:44:26,29.8,50
433,1399015174,2014-05-02T12:49:34,29.9,50
434,1399015481,2014-05-02T12:54:41,30,50
435,1399015789,2014-05-02T12:59:49,30.1,50
436,1399016097,2014-05-02T13:04:57,30.1,50
437,1399016404,2014-05-02T13:10:04,30.2,50
438,1399016712,2014-05-02T13:15:12,30.2,48
439,1399016968,2014-05-02T13:19:28,30.3,47
440,1399017275,2014-05-02T13:24:35,30.4,46
441,1399017583,2014-05-02T13:29:43,30.5,47
442,1399017891,2014-05-02T13:34:51,30.5,47
443,1399018199,2014-05-02T13:39:59,30.6,46
444,1399018505,2014-05-02T13:45:05,30.7,46
445,1399018813,2014-05-02T13:50:13,30.7,46
446,1399019122,2014-05-02T13:55:22,30.8,45
447,1399019429,2014-05-02T14:00:29,30.9,46
448,1399019736,2014-05-02T14:05:36,30.9,45
449,1399020043,2014-05-02T14:10:43,30.9,47
450,1399020351,2014-05-02T14:15:51,30.9,47
451,1399020607,2014-05-02T14:20:07,30.8,47
452,1399020915,2014-05-02T14:25:15,30.8,48
453,1399021223,2014-05-02T14:30:23,30.8,47
454,1399021530,2014-05-02T14:35:30,30.8,46
455,1399021838,2014-05-02T14:40:38,30.8,45
456,1399022147,2014-05-02T14:45:47,30.8,45
457,1399022454,2014-05-02T14:50:54,30.8,45
458,1399022761,2014-05-02T14:56:01,30.8,47
459,1399023068,2014-05-02T15:01:08,30.7,46
460,1399023376,2014-05-02T15:06:16,30.7,46
461,1399023684,2014-05-02T15:11:24,30.6,48
462,1399023992,2014-05-02T15:16:32,30.6,48
463,1399024249,2014-05-02T15:20:49,30.6,47
464,1399024555,2014-05-02T15:25:55,30.6,48
465,1399024863,2014-05-02T15:31:03,30.6,47
466,1399025170,2014-05-02T15:36:10,30.7,47
467,1399025478,2014-05-02T15:41:18,30.7,46
468,1399025787,2014-05-02T15:46:27,30.8,46
469,1399026094,2014-05-02T15:51:34,30.8,46
470,1399026402,2014-05-02T15:56:42,30.9,46
471,1399026710,2014-05-02T16:01:50,30.9,45
472,1399027016,2014-05-02T16:06:56,30.9,43
473,1399027324,2014-05-02T16:12:04,30.8,43
474,1399027631,2014-05-02T16:17:11,30.8,42
475,1399027939,2014-05-02T16:22:19,30.7,42
476,1399028195,2014-05-02T16:26:35,30.7,42
477,1399028503,2014-05-02T16:31:43,30.6,42
478,1399028810,2014-05-02T16:36:50,30.5,42
479,1399029117,2014-05-02T16:41:57,30.5,42
480,1399029426,2014-05-02T16:47:06,30.4,42
481,1399029733,2014-05-02T16:52:13,30.4,42
482,1399030040,2014-05-02T16:57:20,30.3,42
483,1399030348,2014-05-02T17:02:28,30.3,43
484,1399030655,2014-05-02T17:07:35,30.3,44
485,1399039314,2014-05-02T19:31:54,28.9,53
486,1399039572,2014-05-02T19:36:12,28.9,53
487,1399039878,2014-05-02T19:41:18,28.8,54
488,1399040186,2014-05-02T19:46:26,28.8,53
489,1399040495,2014-05-02T19:51:35,28.7,53
490,1399040801,2014-05-02T19:56:41,28.7,53
491,1399041109,2014-05-02T20:01:49,28.7,53
492,1399041416,2014-05-02T20:06:56,28.6,54
493,1399041724,2014-05-02T20:12:04,28.5,54
494,1399042032,2014-05-02T20:17:12,28.5,54
495,1399042339,2014-05-02T20:22:19,28.5,55
496,1399042647,2014-05-02T20:27:27,28.4,55
497,1399042954,2014-05-02T20:32:34,28.4,55
498,1399043262,2014-05-02T20:37:42,28.4,56
499,1399043518,2014-05-02T20:41:58,28.4,56
500,1399043826,2014-05-02T20:47:06,28.4,56
501,1399044134,2014-05-02T20:52:14,28.4,55
502,1399044441,2014-05-02T20:57:21,28.4,55
503,1399044749,2014-05-02T21:02:29,28.5,55
504,1399045057,2014-05-02T21:07:37,28.5,55
505,1399045364,2014-05-02T21:12:44,28.5,54
506,1399045672,2014-05-02T21:17:52,28.5,54
507,1399045979,2014-05-02T21:22:59,28.5,54
508,1399046287,2014-05-02T21:28:07,28.5,54
509,1399046543,2014-05-02T21:32:23,28.5,54
510,1399046851,2014-05-02T21:37:31,28.5,54
511,1399047159,2014-05-02T21:42:39,28.6,54
512,1399047466,2014-05-02T21:47:46,28.5,54
513,1399047774,2014-05-02T21:52:54,28.5,55
514,1399048081,2014-05-02T21:58:01,28.5,55
515,1399048389,2014-05-02T22:03:09,28.5,55
516,1399048697,2014-05-02T22:08:17,28.5,55
517,1399049004,2014-05-02T22:13:24,28.5,55
518,1399049312,2014-05-02T22:18:32,28.5,55
519,1399049620,2014-05-02T22:23:40,28.4,55
520,1399049927,2014-05-02T22:28:47,28.4,55
521,1399050183,2014-05-02T22:33:03,28.4,55
522,1399050491,2014-05-02T22:38:11,28.4,55
523,1399050799,2014-05-02T22:43:19,28.4,55
524,1399051105,2014-05-02T22:48:25,28.3,55
525,1399051413,2014-05-02T22:53:33,28.3,55
526,1399051722,2014-05-02T22:58:42,28.3,56
527,1399052029,2014-05-02T23:03:49,28.3,56
528,1399052336,2014-05-02T23:08:56,28.3,56
529,1399052643,2014-05-02T23:14:03,28.3,56
530,1399052951,2014-05-02T23:19:11,28.3,57
531,1399053259,2014-05-02T23:24:19,28.2,57
532,1399053566,2014-05-02T23:29:26,28.2,58
533,1399053823,2014-05-02T23:33:43,28.2,58
534,1399054130,2014-05-02T23:38:50,28.2,58
535,1399054438,2014-05-02T23:43:58,28.2,59
536,1399054746,2014-05-02T23:49:06,28.2,59
537,1399055054,2014-05-02T23:54:14,28.1,60
538,1399055361,2014-05-02T23:59:21,28.1,60
539,1399055668,2014-05-03T00:04:28,28.1,61
540,1399055976,2014-05-03T00:09:36,28,61
541,1399056284,2014-05-03T00:14:44,28,62
542,1399056591,2014-05-03T00:19:51,28,63
543,1399056899,2014-05-03T00:24:59,28,63
544,1399057206,2014-05-03T00:30:06,27.9,64
545,1399057463,2014-05-03T00:34:23,27.9,64
546,1399057770,2014-05-03T00:39:30,27.9,64
547,1399058078,2014-05-03T00:44:38,27.9,65
548,1399058385,2014-05-03T00:49:45,27.8,65
549,1399058692,2014-05-03T00:54:52,27.8,65
550,1399059001,2014-05-03T01:00:01,27.8,66
551,1399059308,2014-05-03T01:05:08,27.7,66
552,1399059616,2014-05-03T01:10:16,27.7,66
553,1399059924,2014-05-03T01:15:24,27.7,66
554,1399060231,2014-05-03T01:20:31,27.6,66
555,1399060539,2014-05-03T01:25:39,27.6,67
556,1399060847,2014-05-03T01:30:47,27.6,65
557,1399061154,2014-05-03T01:35:54,27.6,65
558,1399061411,2014-05-03T01:40:11,27.5,65
559,1399061718,2014-05-03T01:45:18,27.5,65
560,1399062025,2014-05-03T01:50:25,27.5,64
561,1399062332,2014-05-03T01:55:32,27.5,64